User: anonymous   Login
Location: Unspecified
(0.0000°N, 0.0000°E)
Time: 23:28:12
(UTC+00:00)
Language:

SES-10 - Orbit

View from above orbital plane
View from above orbital plane
View from above satellite
View from above satellite

Ground track
Ground track

The orbit data is extracted from the following two-line orbital elements,

1 42432U 17017A   18294.10385918 -.00000276 +00000-0 +00000-0 0  9996
2 42432 000.0154 250.0753 0002951 316.2909 153.6187 01.00270501005749
Epoch (UTC): 21 October 2018 02:29:33
Eccentricity: 0.0002951
inclination: 0.0154°
perigee height: 35774 km
apogee height: 35799 km
right ascension of ascending node: 250.0753°
argument of perigee: 316.2909°
revolutions per day: 1.00270501
mean anomaly at epoch: 153.6187°
orbit number at epoch: 574

The dashed part of the orbit path shows where the satellite is in the earth's shadow,  

DLR